Location: Rounton
(54.4000°N, 1.3500°W)
Time: 09:53:02
(UTC+00:00)

deb Explorer IX - All Passes

Search period start: 25 February 2024 00:00
Search period end: 06 March 2024 00:00
Orbit: 516 x 916 km, 38.7° (Epoch: 24 February)

Date Brightness Start Highest point End Pass type
(mag) Time Alt. Az. Time Alt. Az. Time Alt. Az.
25 Feb - 10:17:30 10° S 10:19:14 11° SSE 10:20:58 10° SE daylight
25 Feb - 11:58:36 10° SSW 12:02:34 18° S 12:06:26 10° SE daylight
25 Feb - 13:42:27 10° SW 13:46:00 16° SSW 13:49:26 10° SSE daylight
26 Feb - 11:03:09 10° SSW 11:06:54 16° SSE 11:10:35 10° SE daylight
26 Feb - 12:46:24 10° SW 12:50:21 18° S 12:54:12 10° SSE daylight
26 Feb - 14:32:15 10° SW 14:33:37 11° SSW 14:34:57 10° SSW daylight
27 Feb - 10:07:59 10° SSW 10:11:13 15° SSE 10:14:27 10° SE daylight
27 Feb - 11:50:31 10° SW 11:54:39 18° S 11:58:42 10° SE daylight
27 Feb - 13:35:07 10° SW 13:38:01 14° SSW 13:40:53 10° S daylight
28 Feb - 09:13:19 10° S 09:15:34 12° SSE 09:17:50 10° SE daylight
28 Feb - 10:54:50 10° SW 10:58:55 18° S 11:02:59 10° SE daylight
28 Feb - 12:38:44 10° SW 12:42:22 16° SSW 12:45:56 10° SSE daylight
29 Feb - 09:59:21 10° SSW 10:03:10 17° S 10:07:02 10° SE daylight
29 Feb - 11:42:39 10° SW 11:46:38 18° S 11:50:35 10° SSE daylight
29 Feb - 13:28:49 10° SW 13:29:54 10° SSW 13:31:00 10° SSW daylight
01 Mar - 09:04:08 10° SSW 09:07:27 15° SSE 09:10:49 10° SE daylight
01 Mar - 10:46:45 10° SW 10:50:52 18° S 10:54:58 10° SE daylight
01 Mar - 12:31:26 10° SW 12:34:14 13° SSW 12:37:01 10° S daylight
02 Mar - 08:09:23 10° S 08:11:44 12° SSE 08:14:09 10° SE daylight
02 Mar - 09:51:04 10° SW 09:55:04 18° S 09:59:09 10° SE daylight
02 Mar - 11:35:01 10° SW 11:38:31 16° SSW 11:42:01 10° SSE daylight
03 Mar - 08:55:34 10° SSW 08:59:16 17° S 09:03:06 10° SE daylight
03 Mar - 10:38:54 10° SW 10:42:43 17° S 10:46:36 10° SSE daylight
04 Mar - 08:00:20 10° SSW 08:03:30 15° SSE 08:06:47 10° SE daylight
04 Mar - 09:43:00 10° SW 09:46:54 18° S 09:50:54 10° SE daylight
04 Mar - 11:27:52 10° SW 11:30:16 12° SSW 11:32:41 10° S daylight
05 Mar - 07:05:33 10° S 07:07:46 12° SSE 07:10:03 10° SE daylight
05 Mar - 08:47:18 10° SW 08:51:04 18° S 08:54:59 10° SE daylight
05 Mar - 10:31:19 10° SW 10:34:29 14° SSW 10:37:41 10° SSE daylight
